411  
ASUS44 KLZK 170405  
RWRLZK  
 
WEATHER ROUNDUP FOR ARKANSAS  
NATIONAL WEATHER SERVICE LITTLE ROCK AR  
1100 PM CDT TUE JUL 16 2019  
 
NOTE: "FAIR" INDICATES FEW OR NO CLOUDS BELOW 12,000 FEET WITH NO  
SIGNIFICANT WEATHER AND/OR S TO VISIBILITY
.  
 
ARZ001-003-010-029-170500-  
NORTHWEST ARKANSAS  
 
CITY SKY/WX TMP DP RH WIND PRES REMARKS
 
FAYETTEVILLE CLEAR 75 75 100 S3 29.99R  
FORT SMITH CLEAR 85 80 85 CALM 29.95R HX 99  
HARRISON CLEAR 74 71 91 S3 30.00R  
BENTONVILLE CLEAR 78 72 81 CALM 30.01R  
ROGERS CLEAR 77 73 87 CALM 30.01R  
SILOAM SPGS CLEAR 78 73 84 MISG 29.99R  
HIGHFILL CLEAR 76 70 82 CALM 30.00R  

 
 
ARZ004-005-016-170500-  
NORTH CENTRAL ARKANSAS  
 
CITY SKY/WX TMP DP RH WIND PRES REMARKS
 
BATESVILLE PTCLDY 77 74 90 S3 29.98R  
FLIPPIN CLEAR 76 74 93 CALM 29.97R  
MTN HOME CLEAR 75 74 96 CALM 29.98R  

 
 
ARZ040-041-170500-  
WEST CENTRAL ARKANSAS  
 
CITY SKY/WX TMP DP RH WIND PRES REMARKS
 
MENA CLEAR 81 81 100 CALM 30.01S HX 91  
MOUNT IDA CLEAR 78 76 93 CALM 29.98R FOG  

 
 
ARZ009-017-025-026-028-170500-  
NORTHEAST ARKANSAS  
 
CITY SKY/WX TMP DP RH WIND PRES REMARKS
 
JONESBORO FAIR 77 74 90 SW8 29.97S  
NEWPORT FAIR 76 75 97 S6 29.97S  
WALNUT RIDGE FAIR 77 75 93 S9 29.97R  
BLYTHEVILLE CLOUDY 77 73 87 S7 29.97F  

 
 
ARZ022-023-033-042-044-170500-  
CENTRAL ARKANSAS  
 
CITY SKY/WX TMP DP RH WIND PRES REMARKS
 
LITTLE ROCK MOCLDY 77 76 96 CALM 29.98R  
N LITTLE ROCK N/A 77 76 96 SW3 30.00R  
BENTON CLOUDY 79 77 94 CALM 29.99R  
JACKSONVILLE PTCLDY 77 77 100 CALM 29.98R  
CONWAY N/A 79 77 94 SE7 29.97R  
SEARCY FAIR 75 75 100 SW3 29.99R  
HOT SPRINGS CLEAR 78 78 100 E3 29.99R  
RUSSELLVILLE CLEAR 79 78 97 SE3 29.96R  
CLINTON FAIR 75 75 100 CALM 29.98S  

 
 
ARZ036-170500-  
EAST ARKANSAS  
 
CITY SKY/WX TMP DP RH WIND PRES REMARKS
 
WEST MEMPHIS CLOUDY 78 77 96 S8 29.98S  

 
 
ARZ050-053-066-070-073-170500-  
SOUTHWEST ARKANSAS  
 
CITY SKY/WX TMP DP RH WIND PRES REMARKS
 
ARKADELPHIA CLOUDY 76 76 100 CALM 29.99R  
CAMDEN FAIR 79 77 94 CALM 29.98R FOG  
TEXARKANA CLEAR 82 76 81 S6 29.98R HX 89  
EL DORADO FAIR 80 78 94 S3 30.00R HX 88  
DE QUEEN FOG 78 78 100 CALM 29.97R VSB 1/2  

 
 
ARZ056-057-069-170500-  
SOUTHEAST ARKANSAS  
 
CITY SKY/WX TMP DP RH WIND PRES REMARKS
 
PINE BLUFF FAIR 78 75 90 S6 29.99S  
STUTTGART FAIR 79 77 94 S9 29.99S  
MONTICELLO FAIR 77 74 90 S6 30.00S  
 

 
 
 
 
CLICK HERE TO GO TO PREVIOUS BULLETINS.

The Nexlab AR Page Main Text Page